www.pogodaiklimat.ru

Погода и климат >> Архив погоды >> Дания >> Каруп


ПОГОДА в Карупе

  • Прогноз погоды в Карупе
  • Монитор погоды в Карупе

АРХИВ ПОГОДЫ в Карупе

Время (UTC), дата Ветер
(напр.,м/с)
 
Видим.   Явления Облачность Т
(С)
Тd
(С)
f
(%)
Тe
(С)
Тes
(С)
Комфортность P
(гПа)
Po
(гПа)
Тmin
(С)
Tmax
(С)
R
(мм)
R24
(мм)
S
(см)
13 15.09 З 12 23 км 9/9 930 м
[]
+14.1 +6.0 58 +11 +11 1013.7 1007.3
14 15.09 З 10 18 км 9/9 870 м
[]
+13.9 +7.6 66 +11 +11 1013.8 1007.4
15 15.09 З 12
{19}
21 км 10/10 1020 м
[]
+13.6 +7.5 67 +10 +10 1013.9 1007.5
16 15.09 З 10 22 км 9/9 900 м
[]
+13.6 +7.7 67 +11 +11 1013.7 1007.3
17 15.09 З 11 17 км слаб. ливневой дождь 9/9 800 м
[]
+12.2 +8.6 79 +8 +8 1013.7 1007.3
18 15.09 З 10
{19}
18 км {ливн. осадки} 9/9 1440 м
[]
+13.0 +7.5 69 +10 +10 1013.8 1007.4 +12.1 +16.5
19 15.09 З 8 25 км 9/9 1300 м
[]
+12.8 +6.8 67 +10 +10 1013.8 1007.4
20 15.09 З 10 23 км 9/9 1200 м
[]
+12.8 +7.4 70 +10 +10 1013.9 1007.5
21 15.09 З 10 23 км 3/3 800 м
[]
+12.1 +7.9 75 +9 +9 1014.2 1007.8
22 15.09 З 9 23 км 8/8 1000 м
[]
+11.9 +7.6 75 +9 +9 1014.5 1008.1
23 15.09 З 8 28 км 9/9 1080 м
[]
+12.2 +7.5 73 +9 +9 1014.8 1008.4
00 16.09 З 8 29 км 9/9 1200 м
[]
+12.0 +7.0 71 +9 +9 1014.9 1008.5
01 16.09 З 6 23 км 9/9 1000 м
[]
+11.6 +6.6 71 +9 +9 1015.3 1008.9
02 16.09 З 6 24 км 9/9 960 м
[]
+11.6 +6.1 69 +9 +9 1015.4 1009.0
03 16.09 З 6 21 км 8/8 1020 м
[]
+10.9 +7.2 78 +8 +8 1015.2 1008.8
04 16.09 З 6 12 км слаб. дождь 10/10 930 м
[]
+11.0 +6.8 75 +8 +8 1015.1 1008.7
05 16.09 З 5 21 км в посл. час осадки {ливн. осадки} 9/9 1050 м
[]
+10.8 +7.0 77 +8 +8 1015.1 1008.7
06 16.09 З 6
{10}
23 км {ливн. осадки} 9/9 1410 м
[]
+11.2 +6.7 74 +8 +8 1015.0 1008.6 +10.4 +13.1
07 16.09 З 6 26 км 4/4 1380 м
[]
+12.1 +6.0 66 +10 +10 1015.4 1009.0
08 16.09 З 7 30 км ясно +13.5 +6.4 62 +11 +12 1015.6 1009.2
09 16.09 З 10 30 км 3/3 1300 м
[]
+13.8 +5.5 57 +11 +11 1015.6 1009.2
10 16.09 З 10 35 км 9/9 1260 м
[]
+14.3 +5.2 54 +12 +12 1015.6 1009.2
11 16.09 З 9 40 км 6/6 1200 м
[]
+15.2 +6.1 55 +13 +13 1015.5 1009.1
12 16.09 З 9 45 км 5/5 1200 м
[]
+15.2 +7.0 58 +13 +14 1015.5 1009.1
13 16.09 З 9 60 км 9/9 900 м
[]
+15.0 +8.1 63 +13 +13 1015.4 1009.0
14 16.09 З 10 60 км 9/9 1000 м
[]
+13.8 +8.0 68 +11 +11 1015.3 1008.9
15 16.09 З 9
{14}
27 км 9/9 1020 м
[]
+13.4 +8.3 71 +11 +11 1015.0 1008.6
16 16.09 З 7 50 км в посл. час дождь {ливн. осадки} 10/10 960 м
[]
+12.4 +8.8 79 +10 +10 1014.8 1008.4
17 16.09 З 5 35 км {ливн. осадки} 6/6 800 м
[]
+12.4 +8.9 79 +10 +10 1014.5 1008.1
18 16.09 З 5
{14}
40 км 6/6 1110 м
[]
+11.8 +7.9 77 +9 +9 1014.3 1007.9 +11.2 +15.8
19 16.09 З 6 29 км слаб. ливневой дождь 9/9 750 м
[]
+10.9 +8.5 85 +8 +8 1014.2 1007.8 0.1
20 16.09 З 5 35 км {ливн. осадки} ясно +10.7 +8.1 84 +8 +8 1013.7 1007.3
21 16.09 З 3 35 км в посл. час осадки {ливн. осадки} 4/4 1050 м
[]
+10.3 +7.9 85 +8 +8 1013.0 1006.6 0.2
22 16.09 З 5 50 км в посл. час дождь {ливн. осадки} 8/8 1380 м
[]
+10.2 +7.6 84 +7 +7 1012.7 1006.3 0.1
23 16.09 З 6 21 км слаб. ливневой дождь 9/9 630 м
[]
+10.1 +8.3 89 +7 +7 1012.4 1006.0 0.4
00 17.09 З 6 40 км в посл. час дождь {ливн. осадки} 4/0
[]
+10.0 +7.8 86 +7 +7 1011.7 1005.3 0.7
01 17.09 ЮЗ 4 35 км 8/0 2000 м
[]
+9.6 +7.6 87 +7 +7 1011.3 1004.9
02 17.09 З 5 30 км 9/9 1500 м
[]
+9.9 +7.1 83 +7 +7 1011.0 1004.6
03 17.09 З 5 25 км слаб. дождь 5/5 1500 м
[]
+8.9 +6.1 83 +5 +5 1010.7 1004.3 0.0
04 17.09 СЗ 9 18 км слаб. ливневой дождь 8/8 1050 м
[]
+8.5 +5.8 83 +4 +4 1010.4 1004.0 0.1
05 17.09 З 5 35 км в посл. час дождь {ливн. осадки} 3/3 1110 м
[]
+8.5 +4.4 75 +5 +5 1009.4 1002.9 0.1
07 17.09 З 7 55 км слаб. ливневой дождь 9/9 720 м
[]
+8.5 +5.8 83 +4 +4 1008.9 1002.5 0.9
08 17.09 З 9 35 км {ливн. осадки} 4/4 1500 м
[]
+11.1 +5.7 69 +7 +7 1008.5 1002.1
09 17.09 З 10
{18}
35 км слаб. ливневой дождь 5/5 1020 м
[]
+11.1 +6.6 74 +7 +7 1008.5 1002.1 1
10 17.09 З 11 45 км в посл. час дождь {ливн. осадки} 6/6 1080 м
[]
+11.6 +4.6 62 +8 +8 1008.5 1002.1 0.4
11 17.09 З 9 40 км в посл. час дождь {ливн. осадки} 3/3 1500 м
[]
+11.2 +5.4 67 +8 +8 1008.9 1002.5
12 17.09 СЗ 13-21
{21}
40 км 8/8 1000 м
[]
+12.1 +4.9 61 +8 +8 1008.6 1002.3 0.4
13 17.09 СЗ 12 40 км 9/9 1020 м
[]
+12.5 +5.6 63 +9 +9 1009.0 1002.6
14 17.09 СЗ 13 40 км 8/8 1000 м
[]
+12.2 +5.5 64 +8 +8 1009.7 1003.3
15 17.09 СЗ 13-21
{21}
40 км слаб. ливневой дождь 6/6 930 м
[]
+11.5 +5.7 68 +7 +7 1010.2 1003.8 0.0
16 17.09 СЗ 9 50 км {ливн. осадки} 1/1 1000 м
[]
+11.9 +4.9 62 +9 +9 1011.1 1004.7
17 17.09 СЗ 7 50 км ясно +11.0 +4.7 65 +8 +8 1012.0 1005.6
18 17.09 СЗ 5
{21}
45 км ясно +9.7 +4.4 70 +7 +7 1013.0 1006.6 +8.4 +12.9
19 17.09 СЗ 4 45 км ясно +8.7 +4.5 75 +6 +6 1013.8 1007.4
20 17.09 З 4 40 км ясно +7.4 +4.3 81 +4 +4 1014.7 1008.3
21 17.09 З 5 40 км ясно +9.3 +5.7 78 +6 +6 1015.3 1008.9
22 17.09 СЗ 5 40 км ясно +9.9 +6.4 79 +7 +7 1015.8 1009.4
23 17.09 З 5 30 км ясно +9.9 +6.5 79 +7 +7 1016.5 1010.1
00 18.09 СЗ 5 28 км ясно +9.6 +6.5 81 +7 +7 1016.8 1010.4
01 18.09 СЗ 6 29 км ясно +9.9 +6.4 79 +6 +6 1017.0 1010.6
02 18.09 СЗ 6 29 км ясно +9.5 +6.1 79 +6 +6 1017.3 1010.9
03 18.09 СЗ 7 35 км 4/4 840 м
[]
+9.8 +5.6 75 +6 +6 1017.7 1011.3
04 18.09 СЗ 7 35 км 4/4 930 м
[]
+9.7 +5.2 74 +6 +6 1018.0 1011.6
05 18.09 СЗ 7 40 км 9/9 1170 м
[]
+10.0 +4.8 70 +7 +7 1018.4 1012.0
06 18.09 СЗ 7 40 км 1/1 1050 м
[]
+10.0 +5.3 73 +6 +6 1018.8 1012.4 +7.0 +10.4
07 18.09 СЗ 8 40 км ясно +11.4 +5.5 67 +8 +8 1019.3 1012.8
08 18.09 СЗ 9 35 км 8/8 840 м
[]
+11.8 +6.1 68 +8 +8 1019.6 1013.2
09 18.09 СЗ 9-15
{15}
40 км 4/4 930 м
[]
+12.2 +5.5 64 +9 +9 1019.9 1013.5
10 18.09 СЗ 9 40 км 8/8 1000 м
[]
+13.1 +6.3 63 +10 +10 1020.2 1013.8
11 18.09 СЗ 10 40 км 6/6 960 м
[]
+14.2 +6.9 61 +12 +12 1020.5 1014.1
12 18.09 СЗ 10
{16}
45 км 6/6 870 м
[]
+12.8 +6.8 67 +10 +10 1020.7 1014.3
13 18.09 СЗ 11 40 км 9/9 930 м
[]
+13.7 +7.5 66 +11 +11 1020.7 1014.3
14 18.09 СЗ 8 45 км {ливн. осадки} 9/9 1300 м
[]
+13.3 +7.5 68 +11 +11 1021.1 1014.7
15 18.09 СЗ 8
{17}
40 км 5/5 800 м
[]
+13.4 +7.5 67 +11 +11 1021.1 1014.7
16 18.09 СЗ 7 40 км 3/3 1230 м
[]
+12.7 +7.7 72 +10 +10 1021.2 1014.8
17 18.09 З 5 35 км 1/1 800 м
[]
+11.8 +7.8 76 +9 +9 1021.6 1015.2
18 18.09 З 4
{17}
35 км ясно +10.0 +7.3 83 +7 +7 1022.2 1015.7 +10.0 +14.4
19 18.09 З 4 28 км ясно +8.5 +6.9 90 +5 +5 1022.6 1016.1
20 18.09 З 4 27 км ясно +8.7 +7.0 89 +6 +6 1022.9 1016.4
21 18.09 З 4 25 км ясно +8.8 +7.2 90 +6 +6 1023.2 1016.7
22 18.09 З 4 25 км ясно +8.0 +6.7 91 +5 +5 1023.4 1016.9
23 18.09 З 4 29 км ясно +7.5 +6.2 91 +4 +4 1023.8 1017.3
00 19.09 З 4 30 км 4/0
[]
+7.2 +5.8 91 +4 +4 1024.1 1017.6
01 19.09 З 4 35 км 1/0
[]
+7.6 +6.0 90 +4 +4 1024.5 1018.0
02 19.09 З 3 30 км ясно +7.1 +5.6 90 +4 +4 1024.4 1017.9
03 19.09 З 3 30 км ясно +5.3 +3.8 90 +2 +2 1024.8 1018.3
04 19.09 З 3 30 км ясно +4.1 +3.2 94 +1 +1 1025.0 1018.5
05 19.09 З 3 35 км ясно +5.7 +4.6 93 +2 +2 1025.6 1019.0
06 19.09 З 3 40 км ясно +6.1 +4.9 92 +3 +3 1026.0 1019.4 +3.9 +10.0
07 19.09 З 3 50 км ясно +9.7 +7.6 87 +8 +9 1026.4 1019.8
08 19.09 СЗ 3 60 км ясно +11.6 +7.9 78 +10 +12 1027.3 1020.6
09 19.09 СЗ 4 65 км 1/1 1050 м
[]
+13.0 +8.3 73 +11 +14 1027.8 1021.1
10 19.09 СЗ 3 50 км ясно +13.9 +7.3 64 +13 +18 1028.1 1021.4
11 19.09 З 3 60 км 3/3 1000 м
[]
+14.6 +6.9 60 +14 +18 1028.2 1021.5
12 19.09 СЗ 2 60 км 5/5 1110 м
[]
+15.1 +6.9 58 +15 +19 1028.0 1021.3
13 19.09 СЗ 3 65 км 8/8 1440 м
[]
+15.5 +4.2 47 +15 +16 1028.0 1021.3
14 19.09 З 6 60 км 8/8 1260 м
[]
+14.6 +6.6 59 +13 +13 1027.7 1021.0
15 19.09 З 6 60 км 9/9 1050 м
[]
+13.9 +6.5 61 +12 +12 1027.6 1020.9
16 19.09 СЗ 5 60 км 10/0
[]
+12.5 +7.3 71 +10 +11 1027.9 1021.2
17 19.09 СЗ 4 55 км 10/0 2000 м
[]
+12.2 +7.4 72 +10 +10 1027.9 1021.2
18 19.09 З 3 50 км 10/10 700 м
[]
+11.6 +7.9 78 +10 +10 1027.6 1021.1 +6.1 +16.1
19 19.09 З 4 50 км 10/0 2000 м
[]
+11.4 +7.9 79 +9 +9 1027.7 1021.2
20 19.09 З 4 45 км 10/0 2000 м
[]
+11.0 +7.6 80 +9 +9 1027.9 1021.4
21 19.09 З 4 45 км 10/10 1500 м
[]
+11.0 +7.5 79 +9 +9 1027.9 1021.4
22 19.09 З 4 45 км 10/10 1140 м
[]
+10.9 +7.6 80 +9 +9 1027.7 1021.2
23 19.09 З 4 50 км 9/9 900 м
[]
+11.0 +7.5 79 +9 +9 1027.3 1020.8
00 20.09 З 4 45 км 10/10 480 м
[]
+11.3 +7.8 79 +9 +9 1027.3 1020.8
01 20.09 З 2 50 км 10/10 330 м
[]
+11.4 +8.5 82 +10 +10 1027.0 1020.5
02 20.09 ЮЗ 3 35 км 10/10 240 м
[]
+11.7 +9.7 88 +10 +10 1026.7 1020.2
03 20.09 ЮЗ 3 25 км слаб. дождь 10/10 270 м
[]
+11.8 +10.4 91 +10 +10 1026.3 1019.8 0.0
04 20.09 З 4 40 км {ливн. осадки} 9/9 480 м
[]
+12.3 +11.3 94 +10 +10 1025.7 1019.2
05 20.09 З 3 25 км 10/10 240 м
[]
+12.6 +11.6 94 +11 +11 1025.5 1019.0
06 20.09 З 4 45 км 10/10 240 м
[]
+12.8 +11.8 94 +11 +11 1025.6 1019.1 +10.8 +12.9
07 20.09 З 6 50 км 9/9 240 м
[]
+13.4 +11.9 91 +11 +11 1025.5 1019.0
08 20.09 З 5 55 км 9/9 360 м
[]
+14.1 +12.3 89 +12 +12 1025.5 1019.1
09 20.09 З 6 55 км в посл. час осадки {ливн. осадки} 10/10 450 м
[]
+14.2 +12.2 88 +12 +12 1025.7 1019.3 0.0
10 20.09 З 8 60 км 9/9 500 м
[]
+15.5 +11.9 79 +14 +14 1025.1 1018.7
11 20.09 З 7 65 км 9/9 450 м
[]
+15.6 +11.8 78 +14 +14 1025.2 1018.8
12 20.09 З 7 60 км в посл. час туман 10/10 500 м
[]
+14.7 +11.6 82 +13 +13 1025.0 1018.6
13 20.09 З 9 65 км 10/10 600 м
[]
+14.9 +10.4 74 +13 +13 1024.7 1018.3
14 20.09 З 8 50 км 10/10 500 м
[]
+14.4 +10.7 78 +12 +12 1024.3 1017.9
15 20.09 З 8 55 км 10/10 540 м
[]
+14.1 +10.5 79 +12 +12 1024.0 1017.6
16 20.09 З 7 50 км 10/10 420 м
[]
+13.7 +10.7 82 +11 +11 1023.6 1017.2
17 20.09 З 7 40 км 10/10 420 м
[]
+13.4 +10.5 83 +11 +11 1023.3 1016.9
18 20.09 З 8 35 км 10/10 360 м
[]
+12.9 +10.5 85 +10 +10 1023.3 1016.9 +12.8 +16.1
19 20.09 З 7 30 км 10/10 330 м
[]
+12.9 +10.7 86 +10 +10 1023.2 1016.8
20 20.09 З 7 30 км 10/10 300 м
[]
+12.8 +10.8 88 +10 +10 1022.8 1016.4
21 20.09 З 6 30 км 9/9 330 м
[]
+12.7 +10.7 88 +10 +10 1022.7 1016.3
22 20.09 З 5 29 км 9/9 300 м
[]
+12.4 +10.7 89 +10 +10 1022.2 1015.8
23 20.09 З 5 26 км 8/8 240 м
[]
+11.9 +10.6 92 +9 +9 1021.8 1015.4
00 21.09 З 5 28 км 4/4 270 м
[]
+11.8 +10.7 93 +9 +9 1021.8 1015.4
01 21.09 ЮЗ 3 23 км ясно +11.2 +10.2 94 +9 +9 1021.7 1015.3
02 21.09 ЮЗ 4 19 км 1/1 210 м
[]
+10.9 +10.0 94 +8 +8 1021.7 1015.3
03 21.09 З 4 14 км ясно +10.7 +10.0 95 +8 +8 1021.3 1014.9
04 21.09 ЮЗ 4 18 км 3/3 180 м
[]
+11.0 +10.3 95 +8 +8 1021.1 1014.7
05 21.09 ЮЗ 4 17 км 9/9 180 м
[]
+11.0 +10.3 95 +9 +9 1021.4 1015.0
06 21.09 З 4 21 км 10/10 180 м
[]
+11.3 +10.6 95 +9 +9 1021.6 1015.2 +10.7 +13.0
07 21.09 З 6 35 км 9/9 180 м
[]
+12.0 +11.0 94 +9 +9 1021.7 1015.2
08 21.09 З 6 45 км 9/9 210 м
[]
+12.7 +11.1 90 +10 +10 1021.7 1015.2
09 21.09 З 5 50 км 4/4 240 м
[]
+14.2 +11.6 84 +13 +14 1021.8 1015.3
10 21.09 З 4 65 км ясно +16.8 +12.4 75 +16 +20 1021.6 1015.1
11 21.09 З 4 >70 км ясно +18.2 +12.7 70 +18 +23 1021.2 1014.7
12 21.09 З 3 60 км ясно +18.9 +12.5 66 +20 +25 1021.2 1014.7
13 21.09 З 3 65 км ясно +19.4 +12.2 63 +21 +25 комфорт 1020.8 1014.3
14 21.09 СЗ 3 65 км ясно +20.1 +11.5 58 +22 +25 комфорт 1020.0 1013.6
15 21.09 З 2 >70 км ясно +19.9 +11.7 59 +22 +24 комфорт 1019.4 1013.0
16 21.09 З 3 55 км ясно +19.3 +12.5 65 +21 +22 комфорт 1019.3 1012.9
17 21.09 З 2 65 км ясно +16.9 +11.7 71 +17 +17 1019.0 1012.6
18 21.09 С 2 45 км слаб. ливневой дождь ясно +13.7 +10.8 83 +13 +13 1018.7 1012.4 +11.3 +20.3
19 21.09 З 1 40 км {ливн. осадки} ясно +11.5 +9.5 88 +12 +12 1018.6 1012.3
20 21.09 штиль 0 28 км ясно +10.5 +9.3 92 +10 +10 1018.4 1011.9
21 21.09 З 1 2200 м туман ясно +8.6 +7.5 93 +8 +8 1018.3 1011.8
22 21.09 0 100 м слаб. ливневой дождь ясно +7.9 +7.0 94 1018.0 1011.5
23 21.09 ЮЗ 1 <100 м слаб. ливневой дождь ясно +7.7 +6.9 95 +8 +8 1017.5 1011.0
00 22.09 ЮВ 1 200 м слаб. ливневой дождь ясно +6.9 +6.2 95 +6 +6 1017.2 1010.7
01 22.09 В 1 200 м туман {ливн. осадки} ясно +6.3 +5.7 96 +6 +6 1016.9 1010.4
02 22.09 В 1 100 м слаб. ливневой дождь ясно +5.6 +5.0 96 +5 +5 1016.7 1010.2
03 22.09 В 1 100 м слаб. ливневой дождь ясно +5.6 +5.0 96 +4 +4 1016.3 1009.8 0.0
04 22.09 В 2 6000 м в посл. час дождь {ливн. осадки, туман} 1/1 90 м
[]
+5.6 +5.1 97 +3 +3 1015.8 1009.3
05 22.09 В 1 5000 м дымка ясно +5.3 +4.7 96 +5 +5 1015.8 1009.2
06 22.09 В 1 10 км в посл. час дождь {ливн. осадки} ясно +7.1 +6.5 96 +6 +6 1015.5 1009.0 +5.2 +13.7
07 22.09 В 2 13 км ясно +10.2 +9.6 96 +9 +10 1015.3 1008.8
08 22.09 ЮВ 2 18 км ясно +15.3 +13.8 91 +15 +17 1015.0 1008.5
09 22.09 ЮВ 3 45 км ясно +18.5 +14.0 75 +19 +23 1014.7 1008.2
10 22.09 ЮВ 4 55 км ясно +20.0 +13.1 64 +22 +26 комфорт 1014.3 1007.8
11 22.09 ЮВ 4 60 км ясно +21.2 +12.3 57 +23 +27 комфорт 1013.8 1007.3

 

Местоположение метеостанции Каруп (Дания): широта 56.30 долгота 9.12 высота над уровнем моря 53 м.

В архиве по умолчанию представлена погода в Карупе за последнюю неделю. Архивные данные за месяц целиком и за предыдущие месяцы, начиная с января 2011 года, Вы можете получить, выбрав интересующий диапазон дат из раскрывающегося списка и нажав кнопку "Ввод!".


*Определитесь, кто Вы:
робот инопланетянин человек

Внимание! Время в таблицах - всемирное. Для получения местного времени необходимо прибавить поправку, которая равна 1 ч.

Смотрите также архив погоды в соседних городах и на ближайших метеорологических станциях:

Погода в Исенваде (Дания) (24 км)
Погода в Исенваде (Дания) (24 км)
Погода в Мейрупе (Дания) (29 км)
Погода в Фоулуме (Дания) (36 км)
Погода в Боррисе (Дания) (48 км)
Погода в Силструпе (Дания) (50 км)
Погода в Алеструпе (Дания) (55 км)
Погода в Хорсенсе (Дания) (63 км)
Погода в Биллунде (Дания) (63 км)
Погода в Орхусе (Дания) (67 км)

Пояснения к столбцам:

Ветер - указаны скорость ветра в м/с - средняя за 10 мин, порывы в срок и между сроками (в фигурных скобках) и направление, откуда дует ветер: С - северный, СВ - северо-восточный, В - восточный, ЮВ - юго-восточный, Ю - южный, ЮЗ - юго-западный, З - западный, СЗ - северо-западный.
Видимость - горизонтальная дальность видимости в метрах или километрах. При видимости от 1 до 10 км при отсутствии осадков обычно наблюдается дымка, при ухудшении видимости до 1 км и менее - туман. В сухую погоду видимость может ухудшаться дымом, пылью или мглою.
Явления - указаны атмосферные явления, наблюдавшиеся в срок или в последний час перед сроком; фигурными скобками обозначены явления, наблюдавшиеся между сроками (за 1-3 часа до срока); квадратными скобками обозначены град или гололедные отложения с указанием их диаметра в мм.
Облачность - указаны через наклонную черту общая и нижняя облачность в баллах и высота нижней границы облаков в метрах; квадратными скобками обозначены формы облаков: Ci - перистые, Cs - перисто-слоистые, Cc - перисто-кучевые, Ac - высококучевые, As - высокослоистые, Sc - слоисто-кучевые, Ns - слоисто-дождевые, Cu - кучевые, Cb - кучево-дождевые. Подробнее классификацию облаков см. в Атласе облаков (PDF).
T - Температура воздуха - температура, измеренная на высоте 2 м над землей.
Td - Температура точки росы - температура, при понижении до которой содержащийся в воздухе водяной пар достигнет насыщения.
f - Относительная влажность воздуха - влажноcть воздуха, измеренная на высоте 2 м над землей.
Te - Эффективная температура - температура, которую ощущает одетый по сезону человек в тени. Характеристика душности погоды. При расчете учитывается влияние влажности воздуха и скорости ветра на теплоощущения человека.
Tes - Эффективная температура на солнце - температура, которую ощущает человек, с поправкой на солнечный нагрев. Характеристика знойности погоды. Зависит от высоты солнца над горизонтом, облачности и скорости ветра. Ночью, в пасмурную погоду, а также при ветре 12 м/с и более поправка равна нулю.
P - Атмосферное давление - приведенное к уровню моря атмосферное давление.
Po - Атмосферное давление - измеренное на уровне метеостанции атмосферное давление.
Tmin - Минимальная температура - минимум температуры воздуха на высоте 2 м над землей.
Tmax - Максимальная температура - максимум температуры воздуха на высоте 2 м над землей.
R - Количество осадков - Количество выпавших осадков за период времени, мм. При наведении курсора мыши на число - период времени, за который выпало указанное количество осадков.
R24 - Количество осадков - Количество выпавших осадков за 24 часа, мм.
S - Снежный покров - Высота снежного покрова, см. При наведении курсора мыши на число - состояние снежного покрова и степень покрытия местности в баллах.